Change the Weather History Date:

Friday, January 10, 2014

  Actual Average (KMEM) Record (KMEM)
Temperature  
Mean Temperature 48 °F 41 °F  
Max Temperature 55 °F 49 °F 75 °F (1890)
Min Temperature 42 °F 32 °F -2 °F (1886)
Degree Days  
Heating Degree Days 16 24  
Month to date heating degree days 240  
Since 1 July heating degree days 1404  
Cooling Degree Days 0 0  
Month to date cooling degree days 0  
Year to date cooling degree days 0  
Moisture  
Dew Point 47 °F    
Average Humidity 99    
Maximum Humidity 100    
Minimum Humidity 93    
Precipitation  
Precipitation 0.82 in 0.13 in 3.89 in (1974)
Month to date precipitation 1.36  
Year to date precipitation 1.36  
Snow  
Snow 0.00 in 0.10 in 3.60 in (1997)
Month to date snowfall 0.6  
Since 1 July snowfall 0.8  
Snow Depth -    
Sea Level Pressure  
Sea Level Pressure 29.96 in    
Wind  
Wind Speed 9 mph (SSE)    
Max Wind Speed 25 mph    
Max Gust Speed 32 mph    
Visibility 8 miles    
Events Rain    
T = Trace of Precipitation, MM = Missing Value Source: NWS Daily Summary

Daily Weather History Graph

Daily Weather History Graph

Search for Another Location

Airport or City:

Trip Planner

Search our weather history database for the weather conditions in past years. The results will help you decide how hot, cold, wet, or windy it might be!

Date:

Astronomy

Jan. 10, 2014 Rise Set
Actual Time 7:07 AM CST 5:06 PM CST
Civil Twilight 6:39 AM CST 5:33 PM CST
Nautical Twilight 6:08 AM CST 6:05 PM CST
Astronomical Twilight 5:37 AM CST 6:35 PM CST
Moon 1:07 PM CST (1/10) 2:18 AM CST (1/10)
Length of Visible Light 10h 54m
Length of Day
9h 58m
Waxing Gibbous, 75% of the Moon is Illuminated
Jan 10
Waxing Gibbous
Jan 15
Full
Jan 23
Last Quarter
Jan 30
New
Feb 6
First Quarter

Hourly Weather History & Observations

Time (CST) Temp. Windchill Dew Point Humidity Pressure Visibility Wind Dir Wind Speed Gust Speed Precip Events Conditions
12:15 AM 44.6 °F 40.7 °F 42.8 °F 93% 30.19 in 10.0 mi SSE 6.9 mph - 0.00 in   Overcast
12:35 AM 44.6 °F 40.7 °F 42.8 °F 93% 30.19 in 5.0 mi SSE 6.9 mph - 0.00 in   Overcast
12:55 AM 42.8 °F 38.6 °F 42.8 °F 100% 30.18 in 10.0 mi SSE 6.9 mph - 0.00 in   Overcast
1:15 AM 42.8 °F 38.6 °F 42.8 °F 100% 30.17 in 10.0 mi SE 6.9 mph - 0.00 in   Overcast
1:35 AM 44.6 °F 40.2 °F 44.6 °F 100% 30.17 in 9.0 mi SSE 8.1 mph - 0.00 in   Overcast
1:55 AM 44.6 °F 40.7 °F 44.6 °F 100% 30.17 in 7.0 mi SSE 6.9 mph - 0.00 in   Overcast
2:15 AM 44.6 °F 40.2 °F 44.6 °F 100% 30.16 in 10.0 mi SSE 8.1 mph - 0.00 in   Mostly Cloudy
2:35 AM 42.8 °F 37.5 °F 42.8 °F 100% 30.15 in 10.0 mi SE 9.2 mph - 0.00 in   Scattered Clouds
2:55 AM 42.8 °F 38.0 °F 42.8 °F 100% 30.15 in 10.0 mi SSE 8.1 mph - 0.00 in   Clear
3:15 AM 42.8 °F 37.0 °F 42.8 °F 100% 30.15 in 10.0 mi SSE 10.4 mph - 0.00 in   Partly Cloudy
3:35 AM 42.8 °F 37.5 °F 42.8 °F 100% 30.15 in 10.0 mi SSE 9.2 mph - 0.00 in   Mostly Cloudy
3:55 AM 42.8 °F 37.5 °F 42.8 °F 100% 30.14 in 10.0 mi SSE 9.2 mph - 0.00 in   Scattered Clouds
4:15 AM 42.8 °F 37.5 °F 42.8 °F 100% 30.13 in 10.0 mi SSE 9.2 mph - 0.00 in   Clear
4:35 AM 42.8 °F 38.0 °F 42.8 °F 100% 30.13 in 10.0 mi SSE 8.1 mph - 0.00 in   Clear
4:55 AM 42.8 °F 37.5 °F 42.8 °F 100% 30.13 in 8.0 mi SSE 9.2 mph - 0.00 in   Clear
5:15 AM 42.8 °F 37.5 °F 42.8 °F 100% 30.12 in 10.0 mi SSE 9.2 mph - 0.00 in   Partly Cloudy
5:35 AM 42.8 °F 37.0 °F 42.8 °F 100% 30.12 in 10.0 mi SSE 10.4 mph - 0.00 in   Scattered Clouds
6:50 AM 42.8 °F 38.6 °F 42.8 °F 100% 30.12 in 7.0 mi SSE 6.9 mph - N/A Rain Light Rain
7:50 AM 42.8 °F 38.6 °F 42.8 °F 100% 30.12 in 8.0 mi SSE 6.9 mph - N/A   Overcast
8:50 AM 44.6 °F 39.2 °F 44.6 °F 100% 30.10 in 10.0 mi SSE 10.4 mph - N/A   Mostly Cloudy
9:50 AM 44.6 °F 40.2 °F 44.6 °F 100% 30.09 in 10.0 mi SSE 8.1 mph - N/A   Mostly Cloudy
10:50 AM 46.4 °F 41.9 °F 46.4 °F 100% 30.03 in 10.0 mi SE 9.2 mph - N/A   Overcast
11:50 AM 48.2 °F - 48.2 °F 100% 29.99 in 10.0 mi SSE 10.4 mph - N/A   Overcast
12:50 PM 51.8 °F - 51.8 °F 100% 29.95 in 10.0 mi SSE 10.4 mph - N/A   Overcast
1:50 PM 55.4 °F - 53.6 °F 94% 29.91 in 10.0 mi SSE 10.4 mph - N/A   Mostly Cloudy
2:50 PM 55.4 °F - 53.6 °F 94% 29.89 in 10.0 mi SSE 11.5 mph - N/A   Mostly Cloudy
3:50 PM 51.8 °F - 51.8 °F 100% 29.85 in 10.0 mi SSE 11.5 mph - N/A   Overcast
4:50 PM 51.8 °F - 51.8 °F 100% 29.81 in 10.0 mi SSE 9.2 mph 20.7 mph N/A   Overcast
5:50 PM 50.0 °F - 50.0 °F 100% 29.77 in 10.0 mi SSE 17.3 mph 26.5 mph N/A   Mostly Cloudy
6:50 PM 50.0 °F - 50.0 °F 100% 29.78 in 8.0 mi South 11.5 mph 20.7 mph N/A   Mostly Cloudy
7:50 PM 51.8 °F - 51.8 °F 100% 29.75 in 10.0 mi SSE 15.0 mph 24.2 mph N/A   Overcast
7:55 PM 51.8 °F - 51.8 °F 100% 29.76 in 10.0 mi SSE 12.7 mph 21.9 mph 0.00 in   Overcast
8:15 PM 53.6 °F - 53.6 °F 100% 29.75 in 10.0 mi South 16.1 mph 21.9 mph 0.00 in   Overcast
8:35 PM 53.6 °F - 53.6 °F 100% 29.75 in 10.0 mi South 16.1 mph 23.0 mph 0.00 in   Overcast
8:55 PM 53.6 °F - 53.6 °F 100% 29.73 in 5.0 mi South 13.8 mph 19.6 mph 0.00 in   Overcast
9:15 PM 53.6 °F - 53.6 °F 100% 29.72 in 10.0 mi South 12.7 mph 20.7 mph 0.00 in   Overcast
9:35 PM 53.6 °F - 53.6 °F 100% 29.81 in 2.5 mi West 25.3 mph 32.2 mph 0.16 in   Overcast
9:55 PM 51.8 °F - 51.8 °F 100% 29.75 in 1.5 mi Calm Calm - 0.49 in   Overcast
10:15 PM 51.8 °F - 51.8 °F 100% 29.74 in 4.0 mi ESE 5.8 mph - 0.05 in   Overcast
10:35 PM 51.8 °F - - N/A% 29.72 in 2.5 mi SE 6.9 mph - 0.12 in   Overcast
10:55 PM 53.6 °F - - N/A% 29.71 in 5.0 mi South 8.1 mph - 0.17 in   Overcast
11:15 PM 53.6 °F - - N/A% 29.69 in 2.0 mi SSE 5.8 mph - 0.07 in   Overcast
11:35 PM 53.6 °F - - N/A% 29.67 in 3.0 mi South 8.1 mph - 0.16 in   Overcast
11:55 PM 53.6 °F - - N/A% 29.68 in 10.0 mi SSW 6.9 mph - 0.16 in   Overcast